Weather History for Meadville, PA

Change the Weather History Date:

Saturday, October 13, 2012

  Actual Average Record
Temperature  
Mean Temperature 44 °F -  
Max Temperature 57 °F 61 °F 81 °F (1954)
Min Temperature 32 °F 40 °F 24 °F (1957)
Degree Days  
Heating Degree Days 20    
Moisture  
Dew Point 30 °F    
Average Humidity 60    
Maximum Humidity 75    
Minimum Humidity 36    
Precipitation  
Precipitation 0.00 in - - ()
Sea Level Pressure  
Sea Level Pressure 30.31 in    
Wind  
Wind Speed 2 mph (ESE)    
Max Wind Speed 7 mph    
Max Gust Speed -    
Visibility 10 miles    
Events Rain    
Averages and records for this station are not official NWS values.
T = Trace of Precipitation, MM = Missing Value Source: NWS Daily Summary

Daily Weather History Graph

Daily Weather History Graph

Search for Another Location

Airport:

Trip Planner

Search our weather history database for the weather conditions in past years. The results will help you decide how hot, cold, wet, or windy it might be!

Date:

Astronomy

Oct. 13, 2012 Rise Set
Actual Time 7:31 AM EDT 6:42 PM EDT
Civil Twilight 7:03 AM EDT 7:09 PM EDT
Nautical Twilight 6:31 AM EDT 7:42 PM EDT
Astronomical Twilight 5:58 AM EDT 8:14 PM EDT
Moon 5:18 AM EDT (10/13) 5:25 PM EDT (10/13)
Length of Visible Light 12h 06m
Length of Day
11h 10m
Waning Crescent, 5% of the Moon is Illuminated
Oct 13
Waning Crescent
Oct 15
New
Oct 21
First Quarter
Oct 29
Full
Nov 6
Last Quarter

Hourly Weather History & Observations

Time (EDT) Temp. Windchill Dew Point Humidity Pressure Visibility Wind Dir Wind Speed Gust Speed Precip Events Conditions
12:53 AM 34.0 °F - 26.1 °F 73% 30.43 in 10.0 mi Calm Calm - N/A   Clear
1:53 AM 34.0 °F 29.8 °F 26.1 °F 73% 30.44 in 10.0 mi East 4.6 mph - N/A   Clear
2:53 AM 32.0 °F - 25.0 °F 75% 30.43 in 10.0 mi Calm Calm - N/A   Clear
3:53 AM 33.1 °F - 25.0 °F 72% 30.41 in 10.0 mi Calm Calm - N/A   Clear
4:53 AM 34.0 °F 31.0 °F 24.1 °F 67% 30.40 in 10.0 mi Variable 3.5 mph - N/A   Clear
5:53 AM 34.0 °F - 24.1 °F 67% 30.40 in 10.0 mi Calm Calm - N/A   Clear
6:53 AM 33.1 °F - 23.0 °F 66% 30.42 in 10.0 mi Calm Calm - N/A   Clear
7:53 AM 33.1 °F - 23.0 °F 66% 30.41 in 10.0 mi Calm Calm - N/A   Clear
8:53 AM 36.0 °F - 24.1 °F 62% 30.40 in 10.0 mi Calm Calm - N/A   Clear
9:53 AM 39.9 °F 36.7 °F 26.1 °F 58% 30.38 in 10.0 mi SSE 4.6 mph - N/A   Clear
10:53 AM 44.1 °F 40.1 °F 27.0 °F 51% 30.36 in 10.0 mi East 6.9 mph - N/A   Clear
11:53 AM 51.1 °F - 28.9 °F 43% 30.34 in 10.0 mi Variable 4.6 mph - N/A   Clear
12:53 PM 52.0 °F - 28.9 °F 41% 30.32 in 10.0 mi Variable 6.9 mph - N/A   Clear
2:53 PM 55.9 °F - 28.9 °F 36% 30.24 in 10.0 mi Variable 5.8 mph - N/A   Clear
4:53 PM 57.0 °F - 36.0 °F 45% 30.16 in 10.0 mi Variable 4.6 mph - N/A   Clear
5:53 PM 57.0 °F - 39.0 °F 51% 30.14 in 10.0 mi Variable 6.9 mph - N/A   Partly Cloudy
6:53 PM 57.0 °F - 41.0 °F 55% 30.09 in 10.0 mi Variable 4.6 mph - N/A   Partly Cloudy
8:53 PM 57.0 °F - 45.0 °F 64% 30.06 in 10.0 mi Variable 5.8 mph - 0.00 in Rain Light Rain
10:53 PM 57.0 °F - 46.9 °F 69% 30.05 in 10.0 mi Variable 6.9 mph - 0.00 in   Overcast